Flight Track Log - Related Links

Times and Time Zones

All times are in EDT time to prevent confusion due to time zone crossing. See the N546QS flight status page for this flight to view local times or setup timezone preferences in your user account.

Time Position Orientation Groundspeed Altitude Reporting Facility
EDT Latitude Longitude Course Direction KTS MPH feet Rate Location/Type
04:33PM 33.9322 -118.4308 325° Northwest 197 227 1,900  Level Los Angeles Center
04:35PM 33.8975 -118.5081 242° Southwest 237 273 5,100 3,290 Climbing Los Angeles Center
04:36PM 33.8492 -118.5778 230° Southwest 252 290 8,700 2,371 Climbing Los Angeles Center
04:37PM 33.8228 -118.6603 249° West 287 330 10,000 1,597 Climbing Los Angeles Center
04:38PM 33.8183 -118.7736 267° West 342 394 12,000 2,064 Climbing Los Angeles Center
04:39PM 34.3522 -118.7574 325° Northwest  Level Estimated
04:39PM 33.8481 -118.8894 287° West 363 418 14,300  Level Los Angeles Center
04:40PM 33.9100 -119.0197 300° West 384 442 17,300 2,710 Climbing Los Angeles Center
04:41PM 33.9869 -119.1147 314° West 395 455 19,900 2,226 Climbing Los Angeles Center
04:42PM 34.0658 -119.2128 314° West 406 467 21,900 1,935 Climbing Los Angeles Center
04:43PM 34.1478 -119.3150 314° West 421 484 23,900 1,935 Climbing Los Angeles Center
04:44PM 34.2303 -119.4189 314° West 428 493 25,900 2,129 Climbing Los Angeles Center
04:45PM 34.3336 -119.5506 314° West 446 513 28,300 1,984 Climbing Los Angeles Center
04:46PM 34.4206 -119.6608 314° West 453 521 30,000 816 Climbing Los Angeles Center
04:47PM 34.5086 -119.7708 314° West 454 522 30,000  Level Los Angeles Center
04:48PM 34.6056 -119.8519 325° Northwest 457 526 30,000  Level Los Angeles Center
04:49PM 34.7339 -119.9561 326° Northwest 462 532 30,000  Level Los Angeles Center
04:50PM 34.8389 -120.0425 326° Northwest 457 526 30,000  Level Los Angeles Center
04:51PM 34.9394 -120.1258 326° Northwest 462 532 30,000  Level Los Angeles Center
04:52PM 35.0442 -120.2133 326° Northwest 462 532 30,000  Level Los Angeles Center
04:53PM 35.1703 -120.3181 326° Northwest 460 529 30,000  Level Los Angeles Center
04:54PM 35.2747 -120.4058 326° Northwest 461 531 30,000  Level Los Angeles Center
04:55PM 35.3781 -120.4961 325° Northwest 464 534 30,000  Level Los Angeles Center
04:56PM 35.4861 -120.5894 325° Northwest 473 544 30,000  Level Los Angeles Center
04:57PM 35.5914 -120.6761 326° Northwest 461 531 30,000  Level Los Angeles Center
04:58PM 35.6519 -120.7286 325° Northwest 464 534 30,000  Level Oakland Center
04:59PM 35.7603 -120.8194 326° Northwest 470 541 30,000  Level Oakland Center
05:00PM 35.8672 -120.9108 325° Northwest 467 537 30,000  Level Oakland Center
05:01PM 35.9967 -121.0225 325° Northwest 470 541 30,000  Level Oakland Center
05:02PM 36.1028 -121.1153 325° Northwest 467 537 30,000  Level Oakland Center
05:03PM 36.2108 -121.2061 326° Northwest 467 537 30,000 -49 Level Oakland Center
05:04PM 36.3167 -121.3000 324° Northwest 468 539 29,900 -390 Descending Oakland Center
05:05PM 36.4231 -121.3897 326° Northwest 461 531 29,200 -683 Descending Oakland Center
05:06PM 36.5269 -121.4811 325° Northwest 456 525 28,500 -590 Descending Oakland Center
05:07PM 36.6286 -121.5725 324° Northwest 450 518 28,000 -244 Descending Oakland Center
05:08PM 36.7397 -121.6492 331° Northwest 453 521 28,000 -49 Level Oakland Center
05:09PM 36.8739 -121.7228 336° Northwest 454 522 27,900 -934 Descending Oakland Center
05:10PM 36.9872 -121.7892 335° Northwest 449 517 26,100 -927 Descending Oakland Center
05:11PM 37.0975 -121.8525 335° Northwest 438 504 26,000 -49 Descending Oakland Center
05:12PM 37.2053 -121.9167 335° Northwest 431 496 26,000 -590 Level Oakland Center
05:13PM 37.3086 -121.9764 335° Northwest 413 475 24,800 -1,902 Descending Oakland Center
05:14PM 37.4078 -122.0344 335° Northwest 396 456 22,100 -2,970 Descending Oakland Center
05:15PM 37.4833 -122.0833 333° Northwest 377 434 19,900 -2,907 Descending Northern Cal TRACON
05:16PM 37.5833 -122.1333 338° Northwest 353 406 17,400 -2,651 Descending Northern Cal TRACON
05:16PM 37.6117 -122.1558 328° Northwest 359 413 16,100 -3,200 Descending Oakland Center
05:17PM 37.6667 -122.1833 338° Northwest 315 362 14,200 -1,443 Descending Northern Cal TRACON
05:19PM 37.8111 -122.3342 320° Northwest 269 310 11,700 -1,251 Descending Oakland Center
05:20PM 37.8586 -122.3919 316° Northwest 242 278 9,800 -1,854 Descending Oakland Center
05:21PM 37.9217 -122.4200 341° North 252 290 7,900 -1,659 Descending Oakland Center
05:22PM 37.9872 -122.4036 11° North 249 287 6,400 -1,415 Descending Oakland Center
05:23PM 38.0478 -122.3656 26° Northeast 246 283 5,000 -1,426 Descending Oakland Center
05:24PM 38.1114 -122.3231 28° Northeast 222 255 3,500 -1,220 Descending Oakland Center
05:25PM 38.1556 -122.2914 29° Northeast 192 221 2,500 -829 Descending Oakland Center
05:26PM 38.1914 -122.2603 34° Northeast 164 189 1,800 -541 Descending Oakland Center
05:27PM 38.2294 -122.2403 22° Northeast 153 176 1,400 -683 Descending Oakland Center
05:29PM 38.2364 -122.2719 286° West 142 163 400 -968 Descending Oakland Center

Login

Don't have an account? Register now (free) for customized features, flight alerts, and more!